User: anonymous   Login
Location: Prairie State College
(41.5244°N, 87.6382°W)
Time: 08:02:53
(UTC-05:00)
Language:

Cosmos 1943 - Orbit

View from above orbital plane
View from above orbital plane
View from above satellite
View from above satellite

Ground track
Ground track

The orbit data is extracted from the following two-line orbital elements,

1 19119U 88039A   15141.73821089  .00000035  00000-0  42684-4 0  9995
2 19119 071.0037 252.3360 0010136 137.8205 326.5419 14.15014180394943
Epoch (UTC): 21 May 2015 17:43:01
Eccentricity: 0.0010136
inclination: 71.0037°
perigee height: 835 km
apogee height: 849 km
right ascension of ascending node: 252.3360°
argument of perigee: 137.8205°
revolutions per day: 14.15014180
mean anomaly at epoch: 326.5419°
orbit number at epoch: 39494

The dashed part of the orbit path shows where the satellite is in the earth's shadow,  

DLR